Weather History for Newton, IA

Change the Weather History Date:

Saturday, December 8, 2012

  Actual Average Record
Temperature  
Mean Temperature 32 °F -  
Max Temperature 39 °F 33 °F 54 °F (1970)
Min Temperature 24 °F 18 °F -2 °F (1976)
Degree Days  
Heating Degree Days 34    
Moisture  
Dew Point 28 °F    
Average Humidity 80    
Maximum Humidity 93    
Minimum Humidity 65    
Precipitation  
Precipitation 0.00 in - - ()
Sea Level Pressure  
Sea Level Pressure 29.98 in    
Wind  
Wind Speed 7 mph (East)    
Max Wind Speed 14 mph    
Max Gust Speed 14 mph    
Visibility 9 miles    
Events Rain    
Averages and records for this station are not official NWS values.
T = Trace of Precipitation, MM = Missing Value Source: NWS Daily Summary

Daily Weather History Graph

Daily Weather History Graph

Search for Another Location

Airport:

Trip Planner

Search our weather history database for the weather conditions in past years. The results will help you decide how hot, cold, wet, or windy it might be!

Date:

Astronomy

Dec. 08, 2012 Rise Set
Actual Time 7:26 AM CST 4:41 PM CST
Civil Twilight 6:55 AM CST 5:12 PM CST
Nautical Twilight 6:20 AM CST 5:47 PM CST
Astronomical Twilight 5:47 AM CST 6:21 PM CST
Moon 1:48 AM CST (12/8) 1:15 PM CST (12/8)
Length of Visible Light 10h 17m
Length of Day
9h 14m
Waning Crescent, 28% of the Moon is Illuminated
Dec 8
Waning Crescent
Dec 13
New
Dec 19
First Quarter
Dec 28
Full
Jan 4
Last Quarter

Hourly Weather History & Observations

Time (CST) Temp. Windchill Dew Point Humidity Pressure Visibility Wind Dir Wind Speed Gust Speed Precip Events Conditions
12:15 AM 33.8 °F 27.7 °F 26.6 °F 75% 29.95 in 10.0 mi North 6.9 mph - N/A   Overcast
12:35 AM 33.8 °F 28.6 °F 26.6 °F 75% 29.94 in 10.0 mi North 5.8 mph - N/A   Mostly Cloudy
12:55 AM 33.8 °F 29.6 °F 26.6 °F 75% 29.95 in 10.0 mi North 4.6 mph - N/A   Scattered Clouds
1:15 AM 33.8 °F 27.0 °F 26.6 °F 75% 29.94 in 10.0 mi North 8.1 mph - N/A   Mostly Cloudy
1:35 AM 32.0 °F 24.2 °F 24.8 °F 75% 29.94 in 10.0 mi North 9.2 mph - N/A   Scattered Clouds
1:55 AM 30.2 °F 22.6 °F 24.8 °F 80% 29.95 in 10.0 mi North 8.1 mph - N/A   Clear
2:15 AM 30.2 °F 22.6 °F 24.8 °F 80% 29.95 in 10.0 mi North 8.1 mph - N/A   Clear
2:35 AM 28.4 °F 20.4 °F 24.8 °F 86% 29.96 in 10.0 mi North 8.1 mph - N/A   Clear
2:55 AM 28.4 °F 20.4 °F 23.0 °F 80% 29.95 in 10.0 mi NNE 8.1 mph - N/A   Clear
3:15 AM 28.4 °F 20.4 °F 23.0 °F 80% 29.96 in 10.0 mi NNE 8.1 mph - N/A   Clear
3:35 AM 28.4 °F 20.4 °F 23.0 °F 80% 29.96 in 10.0 mi NNE 8.1 mph - N/A   Clear
3:55 AM 26.6 °F 18.2 °F 23.0 °F 86% 29.96 in 10.0 mi NNE 8.1 mph - N/A   Clear
4:15 AM 26.6 °F 18.2 °F 23.0 °F 86% 29.96 in 10.0 mi NNE 8.1 mph - N/A   Clear
4:35 AM 26.6 °F 18.2 °F 23.0 °F 86% 29.97 in 10.0 mi NNE 8.1 mph - N/A   Clear
4:55 AM 26.6 °F 21.2 °F 23.0 °F 86% 29.97 in 10.0 mi NE 4.6 mph - N/A   Clear
5:15 AM 26.6 °F 19.1 °F 23.0 °F 86% 29.98 in 10.0 mi NNE 6.9 mph - N/A   Clear
5:35 AM 26.6 °F 20.0 °F 23.0 °F 86% 29.98 in 10.0 mi NNE 5.8 mph - N/A   Clear
5:55 AM 26.6 °F 21.2 °F 23.0 °F 86% 29.98 in 10.0 mi NE 4.6 mph - N/A   Clear
6:15 AM 26.6 °F 20.0 °F 23.0 °F 86% 29.99 in 10.0 mi NE 5.8 mph - N/A   Clear
6:35 AM 26.6 °F 21.2 °F 21.2 °F 80% 29.99 in 10.0 mi NE 4.6 mph - N/A   Clear
6:55 AM 24.8 °F 17.9 °F 21.2 °F 86% 30.00 in 10.0 mi NNE 5.8 mph - N/A   Clear
7:15 AM 24.8 °F 16.1 °F 21.2 °F 86% 30.00 in 10.0 mi NNE 8.1 mph - N/A   Clear
7:35 AM 24.8 °F 16.9 °F 21.2 °F 86% 30.00 in 9.0 mi NNE 6.9 mph - N/A   Clear
7:55 AM 24.8 °F 16.9 °F 21.2 °F 86% 30.00 in 10.0 mi NE 6.9 mph - N/A   Clear
8:15 AM 24.8 °F 16.9 °F 21.2 °F 86% 30.01 in 9.0 mi NE 6.9 mph - N/A   Clear
8:35 AM 26.6 °F 19.1 °F 21.2 °F 80% 30.01 in 10.0 mi NE 6.9 mph - N/A   Clear
8:55 AM 26.6 °F 19.1 °F 23.0 °F 86% 30.01 in 9.0 mi NE 6.9 mph - N/A   Clear
9:15 AM 28.4 °F 20.4 °F 23.0 °F 80% 30.02 in 10.0 mi NE 8.1 mph - N/A   Clear
9:35 AM 30.2 °F 22.6 °F 24.8 °F 80% 30.02 in 10.0 mi ENE 8.1 mph - N/A   Clear
9:55 AM 32.0 °F 26.4 °F 24.8 °F 75% 30.02 in 10.0 mi ENE 5.8 mph - N/A   Clear
10:15 AM 33.8 °F 27.7 °F 26.6 °F 75% 30.03 in 10.0 mi East 6.9 mph - N/A   Clear
10:35 AM 35.6 °F 29.2 °F 28.4 °F 75% 30.02 in 10.0 mi East 8.1 mph - N/A   Clear
10:55 AM 35.6 °F 30.7 °F 28.4 °F 75% 30.02 in 9.0 mi East 5.8 mph - N/A   Clear
11:15 AM 37.4 °F 32.8 °F 28.4 °F 70% 30.02 in 10.0 mi Variable 5.8 mph - N/A   Clear
11:35 AM 37.4 °F 32.8 °F 28.4 °F 70% 30.01 in 10.0 mi SE 5.8 mph - N/A   Partly Cloudy
11:55 AM 37.4 °F 32.1 °F 28.4 °F 70% 30.00 in 10.0 mi Variable 6.9 mph - N/A   Clear
12:15 PM 37.4 °F 32.1 °F 28.4 °F 70% 30.00 in 10.0 mi SE 6.9 mph - N/A   Clear
12:35 PM 37.4 °F 32.1 °F 28.4 °F 70% 30.00 in 10.0 mi SSE 6.9 mph - N/A   Partly Cloudy
12:55 PM 39.2 °F 34.2 °F 28.4 °F 65% 29.99 in 10.0 mi SE 6.9 mph 13.8 mph N/A   Scattered Clouds
1:15 PM 39.2 °F 35.9 °F 30.2 °F 70% 29.99 in 9.0 mi Variable 4.6 mph 12.7 mph N/A   Partly Cloudy
1:35 PM 39.2 °F 33.6 °F 30.2 °F 70% 29.98 in 10.0 mi SSE 8.1 mph - N/A   Clear
1:55 PM 39.2 °F 33.0 °F 30.2 °F 70% 29.98 in 10.0 mi SSE 9.2 mph - N/A   Clear
2:15 PM 39.2 °F 35.9 °F 30.2 °F 70% 29.98 in 10.0 mi SSE 4.6 mph - N/A   Clear
2:35 PM 39.2 °F 35.0 °F 30.2 °F 70% 29.97 in 10.0 mi SE 5.8 mph - N/A   Clear
2:55 PM 37.4 °F 32.8 °F 30.2 °F 75% 29.97 in 10.0 mi ESE 5.8 mph - N/A   Clear
3:15 PM 39.2 °F 34.2 °F 30.2 °F 70% 29.97 in 10.0 mi SE 6.9 mph - N/A   Clear
3:35 PM 39.2 °F 33.6 °F 30.2 °F 70% 29.97 in 9.0 mi ESE 8.1 mph - N/A   Scattered Clouds
3:55 PM 37.4 °F 31.4 °F 28.4 °F 70% 29.97 in 10.0 mi SE 8.1 mph - N/A   Scattered Clouds
4:15 PM 37.4 °F 32.1 °F 30.2 °F 75% 29.97 in 10.0 mi ESE 6.9 mph - N/A   Scattered Clouds
4:35 PM 37.4 °F 32.1 °F 30.2 °F 75% 29.97 in 10.0 mi ESE 6.9 mph - N/A   Mostly Cloudy
4:55 PM 37.4 °F 30.8 °F 30.2 °F 75% 29.97 in 10.0 mi ESE 9.2 mph - N/A   Overcast
5:15 PM 37.4 °F 30.8 °F 30.2 °F 75% 29.97 in 10.0 mi SE 9.2 mph - N/A   Overcast
5:35 PM 37.4 °F 30.3 °F 30.2 °F 75% 29.97 in 10.0 mi SE 10.4 mph - N/A   Overcast
5:55 PM 37.4 °F 30.3 °F 30.2 °F 75% 29.97 in 10.0 mi ESE 10.4 mph - N/A   Overcast
6:15 PM 37.4 °F 30.8 °F 30.2 °F 75% 29.97 in 10.0 mi ESE 9.2 mph - N/A   Overcast
6:35 PM 37.4 °F 30.3 °F 30.2 °F 75% 29.98 in 10.0 mi SE 10.4 mph - N/A   Overcast
6:55 PM 35.6 °F 29.2 °F 32.0 °F 87% 29.98 in 10.0 mi SE 8.1 mph - N/A   Overcast
7:15 PM 35.6 °F 29.2 °F 32.0 °F 87% 29.98 in 9.0 mi SE 8.1 mph - N/A   Overcast
7:55 PM 35.6 °F 28.6 °F 32.0 °F 87% 29.97 in 9.0 mi SE 9.2 mph - N/A   Overcast
8:15 PM 35.6 °F 28.6 °F 32.0 °F 87% 29.97 in 9.0 mi SE 9.2 mph - N/A   Overcast
8:35 PM 35.6 °F 27.1 °F 32.0 °F 87% 29.97 in 5.0 mi ESE 12.7 mph - N/A Rain Light Rain
8:55 PM 35.6 °F 29.2 °F 33.8 °F 93% 29.98 in 6.0 mi SE 8.1 mph - N/A   Overcast
9:15 PM 35.6 °F 27.5 °F 33.8 °F 93% 29.97 in 7.0 mi SSE 11.5 mph - N/A   Overcast
9:35 PM 35.6 °F 29.2 °F 32.0 °F 87% 29.97 in 6.0 mi ESE 8.1 mph - N/A   Overcast
9:55 PM 35.6 °F 29.2 °F 32.0 °F 87% 29.98 in 6.0 mi ESE 8.1 mph - N/A   Overcast
10:15 PM 33.8 °F 27.7 °F 32.0 °F 93% 29.98 in 6.0 mi SE 6.9 mph - N/A   Overcast
10:35 PM 35.6 °F 28.6 °F 32.0 °F 87% 29.98 in 6.0 mi ESE 9.2 mph - N/A   Overcast
10:55 PM 35.6 °F 28.6 °F 32.0 °F 87% 29.96 in 6.0 mi East 9.2 mph - N/A   Overcast
11:15 PM 33.8 °F 26.4 °F 32.0 °F 93% 29.95 in 5.0 mi ESE 9.2 mph - N/A   Overcast
11:35 PM 35.6 °F 26.6 °F 33.8 °F 93% 29.95 in 7.0 mi ESE 13.8 mph - N/A   Overcast
11:55 PM 35.6 °F 27.5 °F 33.8 °F 93% 29.95 in 7.0 mi ESE 11.5 mph - N/A   Overcast